CDT,Max TemperatureF,Mean TemperatureF,Min TemperatureF,Max Dew PointF,MeanDew PointF,Min DewpointF,Max Humidity, Mean Humidity, Min Humidity, Max Sea Level PressureIn, Mean Sea Level PressureIn, Min Sea Level PressureIn, Max VisibilityMiles, Mean VisibilityMiles, Min VisibilityMiles, Max Wind SpeedMPH, Mean Wind SpeedMPH, Max Gust SpeedMPH,PrecipitationIn, CloudCover, Events, WindDirDegrees
2012-10-1,75,69,63,73,64,59,93,82,70,29.79,29.63,29.52,10,10,7,23,12,28,T,8,Rain,282
2012-10-2,80,70,59,62,58,55,93,68,42,29.98,29.87,29.77,10,10,9,10,4,14,0.00,1,,328
2012-10-3,85,74,63,66,63,60,93,71,48,30.11,30.04,29.98,10,10,8,16,7,26,0.00,1,,137
2012-10-4,85,76,66,71,68,64,93,76,58,30.20,30.15,30.11,10,9,5,14,5,17,0.00,0,,98
2012-10-5,86,77,67,72,67,60,97,73,48,30.13,30.07,30.00,10,9,7,13,4,16,0.00,0,,49
2012-10-6,86,76,65,71,67,63,97,71,44,30.02,29.99,29.93,10,9,5,17,6,22,0.00,1,,314
2012-10-7,69,65,60,64,58,54,87,78,68,30.10,30.06,30.01,10,10,9,18,13,23,0.00,5,,10
2012-10-8,72,65,57,55,52,49,86,70,53,30.15,30.09,30.06,10,10,10,20,11,25,0.00,0,,19
2012-10-9,76,67,57,62,56,53,87,71,54,30.14,30.08,30.02,10,10,9,12,4,21,0.00,0,,64
2012-10-10,84,74,64,68,65,62,93,68,43,30.16,30.11,30.05,10,9,5,12,3,14,0.00,1,,37
2012-10-11,85,75,64,68,65,59,93,67,40,30.23,30.17,30.14,10,9,7,13,4,17,0.00,0,,99
2012-10-12,84,74,63,69,67,65,100,79,58,30.27,30.20,30.16,10,8,4,14,6,18,0.00,2,,97
2012-10-13,85,75,65,72,68,66,93,74,55,30.22,30.16,30.09,10,6,2,16,7,22,0.00,0,,137
2012-10-14,87,80,72,73,70,66,87,71,55,30.13,30.04,29.98,10,9,5,12,7,14,0.00,2,,157
2012-10-15,84,77,70,72,67,59,93,72,51,30.03,29.97,29.91,10,9,6,21,8,133,T,2,Rain,349
2012-10-16,81,73,65,60,57,53,68,54,39,29.97,29.92,29.85,10,10,10,16,8,25,0.00,0,,93
2012-10-17,83,76,68,71,66,58,93,76,58,29.86,29.80,29.74,10,10,9,21,10,24,0.00,2,,164
2012-10-18,80,73,66,74,64,51,94,64,33,29.91,29.82,29.73,10,8,2,22,9,28,0.40,4,Rain,14
2012-10-19,80,69,58,53,49,42,84,51,17,29.96,29.91,29.86,10,10,10,17,6,28,0.00,0,,318
2012-10-20,81,68,54,55,48,39,78,50,21,30.01,29.96,29.92,10,10,8,8,2,30,0.00,0,,325
2012-10-21,83,69,55,64,60,53,87,61,34,30.09,30.04,29.98,10,10,10,13,4,15,0.00,0,,123
2012-10-22,84,72,59,68,65,60,90,71,51,30.11,30.07,30.03,10,10,10,14,6,22,0.00,0,,96
2012-10-23,83,74,64,70,68,65,93,78,62,30.08,30.03,30.00,10,10,5,15,7,19,0.00,1,,96
2012-10-24,83,75,66,70,67,65,93,74,55,30.08,30.02,29.98,10,10,7,13,6,16,0.00,1,,106
2012-10-25,83,73,63,71,69,67,100,81,62,30.01,29.96,29.92,10,10,7,12,5,17,0.00,2,,81
2012-10-26,84,71,58,70,68,57,100,73,46,30.01,29.96,29.90,10,6,0,20,7,28,0.00,3,Fog,345
2012-10-27,64,59,53,56,49,45,86,73,60,30.06,30.00,29.95,10,10,10,22,14,29,0.00,6,,357
2012-10-28,66,58,49,45,42,38,77,56,34,30.13,30.06,30.01,10,10,10,23,15,28,0.00,0,,349
2012-10-29,65,57,49,41,37,35,63,46,28,30.19,30.12,30.06,10,10,10,25,14,32,0.00,0,,358
2012-10-30,70,59,47,49,39,35,72,49,25,30.11,30.06,29.99,10,10,10,15,7,20,0.00,0,,313
2012-10-31,80,65,50,60,56,48,93,68,42,30.07,30.01,29.94,10,10,6,16,7,23,0.00,0,,262